FLOCK 3P-66

Last updated on Wed Feb 14 2018 16:20:32 GMT+0000 (Coordinated Universal Time)

1 42027U 17008CH 18045.48156246 .00001471 00000-0 63791-4 0 9998 2 42027 97.4664 111.0746 0009947 83.2349 277.0020 15.23920165 55373
UTC large
Height (km)
Speed (km/s)
/
Latitude / Longitude
Inclination (degrees)
Orbital Period (minutes)
Azimuth
Elevation
Range (km)
Doppler Factor

Next 0 passes for location: London (51.5072 / 0.1276)

Sorry there are no passes over London.
FLOCK 3P-66